Change the Weather History Date:

Sunday, July 21, 2013

  Actual Average Record
Temperature  
Mean Temperature 81 °F -  
Max Temperature 98 °F 90 °F 107 °F (2005)
Min Temperature 64 °F 61 °F 50 °F (1998)
Cooling Degree Days 16    
Growing Degree Days 31 (Base 50)    
Moisture  
Dew Point 35 °F    
Average Humidity 21    
Maximum Humidity 43    
Minimum Humidity 9    
Precipitation  
Precipitation 0.00 in - - ()
Sea Level Pressure  
Sea Level Pressure 29.78 in    
Wind  
Wind Speed 9 mph (SSW)    
Max Wind Speed 13 mph    
Max Gust Speed 21 mph    
Visibility 10 miles    
Events      
Averages and records for this station are not official NWS values.
T = Trace of Precipitation, MM = Missing Value Source: NWS Daily Summary

Daily Weather History Graph

Daily Weather History Graph

Search for Another Location

Airport or City:

Trip Planner

Search our weather history database for the weather conditions in past years. The results will help you decide how hot, cold, wet, or windy it might be!

Date:

Astronomy

Jul. 21, 2013 Rise Set
Actual Time 5:23 AM PDT 8:35 PM PDT
Civil Twilight 4:47 AM PDT 9:11 PM PDT
Nautical Twilight 3:59 AM PDT 9:58 PM PDT
Astronomical Twilight 3:01 AM PDT 10:55 PM PDT
Moon 7:34 PM PDT (7/21) 4:15 AM PDT (7/21)
Length of Visible Light 16h 24m
Length of Day
15h 12m
Waxing Gibbous, 99% of the Moon is Illuminated
Jul 21
Waxing Gibbous
Jul 22
Full
Jul 29
Last Quarter
Aug 6
New
Aug 14
First Quarter

Hourly Weather History & Observations

Time (PDT) Temp. Dew Point Humidity Pressure Visibility Wind Dir Wind Speed Gust Speed Precip Events Conditions
12:53 AM 75.0 °F 34.0 °F 22% 29.81 in 10.0 mi South 10.4 mph - N/A   Clear
1:53 AM 72.0 °F 39.0 °F 30% 29.81 in 10.0 mi South 9.2 mph - N/A   Clear
2:53 AM 72.0 °F 44.1 °F 37% 29.81 in 10.0 mi South 6.9 mph - N/A   Clear
3:53 AM 64.9 °F 42.1 °F 43% 29.81 in 10.0 mi ESE 3.5 mph - N/A   Clear
4:53 AM 69.1 °F 43.0 °F 39% 29.81 in 10.0 mi SSE 4.6 mph - N/A   Clear
5:53 AM 69.1 °F 42.1 °F 38% 29.82 in 10.0 mi South 8.1 mph - N/A   Clear
6:53 AM 72.0 °F 42.1 °F 34% 29.83 in 10.0 mi South 5.8 mph - N/A   Clear
7:53 AM 77.0 °F 37.9 °F 24% 29.83 in 10.0 mi SSW 9.2 mph - N/A   Clear
8:53 AM 81.0 °F 36.0 °F 20% 29.84 in 10.0 mi SSW 10.4 mph - N/A   Clear
9:53 AM 84.0 °F 33.1 °F 16% 29.83 in 10.0 mi SW 12.7 mph - N/A   Clear
10:53 AM 86.0 °F 32.0 °F 14% 29.82 in 10.0 mi WSW 10.4 mph 19.6 mph N/A   Clear
11:53 AM 89.1 °F 28.0 °F 11% 29.81 in 10.0 mi SW 8.1 mph 16.1 mph N/A   Clear
12:53 PM 91.0 °F 25.0 °F 9% 29.79 in 10.0 mi SW 8.1 mph 16.1 mph N/A   Clear
1:53 PM 93.9 °F 28.0 °F 10% 29.78 in 10.0 mi SW 9.2 mph 18.4 mph N/A   Clear
2:53 PM 95.0 °F 30.9 °F 10% 29.76 in 10.0 mi SW 12.7 mph 20.7 mph N/A   Clear
3:53 PM 95.0 °F 33.1 °F 11% 29.75 in 10.0 mi WSW 9.2 mph 18.4 mph N/A   Clear
4:53 PM 98.1 °F 28.9 °F 9% 29.74 in 10.0 mi SW 11.5 mph - N/A   Clear
5:53 PM 96.1 °F 27.0 °F 9% 29.73 in 10.0 mi SW 12.7 mph - N/A   Clear
6:53 PM 95.0 °F 27.0 °F 9% 29.72 in 10.0 mi SW 10.4 mph - N/A   Clear
7:53 PM 91.9 °F 34.0 °F 13% 29.72 in 10.0 mi WSW 5.8 mph - N/A   Clear
8:53 PM 80.1 °F 39.9 °F 24% 29.73 in 10.0 mi ESE 6.9 mph - N/A   Clear
9:53 PM 78.1 °F 37.0 °F 23% 29.74 in 10.0 mi ESE 9.2 mph - N/A   Clear
10:53 PM 80.1 °F 35.1 °F 20% 29.75 in 10.0 mi South 11.5 mph - N/A   Clear
11:53 PM 77.0 °F 43.0 °F 30% 29.77 in 10.0 mi South 10.4 mph - N/A   Clear